Location: Lussas
(44.6119°N, 4.4726°E)
Time: 13:03:14
(UTC+00:00)

SAR-Lupe-1 - Pass Details

Date: 20 April 2021
Orbit: 482 x 483 km, 98.2° (Epoch: 30 March)

Event Time Altitude Azimuth Distance (km) Brightness Sun altitude
Rises 20:19:08 0° 351° (N) 2,559 8.5 -17.5°
Reaches altitude 10° 20:22:40 10° 314° (NW) 1,671 8.1 -17.9°
Maximum altitude 20:23:35 11° 299° (WNW) 1,619 7.9 -18.1°
Drops below altitude 10° 20:24:31 10° 284° (WNW) 1,668 7.8 -18.2°
Sets 20:28:02 0° 246° (WSW) 2,541 8.1 -18.7°
